Weather History for KFXY - April, 2014

Change the Weather History Date:

Monday, April 28, 2014

  Actual Average Record
Temperature  
Mean Temperature 45 °F -  
Max Temperature 48 °F 65 °F 80 °F (2013)
Min Temperature 42 °F 40 °F 33 °F (2015)
Degree Days  
Heating Degree Days 20    
Moisture  
Dew Point 44 °F    
Average Humidity 97    
Maximum Humidity 100    
Minimum Humidity 87    
Precipitation  
Precipitation 0.45 in - - ()
Sea Level Pressure  
Sea Level Pressure 29.47 in    
Wind  
Wind Speed 19 mph (East)    
Max Wind Speed 24 mph    
Max Gust Speed 37 mph    
Visibility 6 miles    
Events Rain    
Averages and records for this station are not official NWS values.
T = Trace of Precipitation, MM = Missing Value Source: NWS Daily Summary

Daily Weather History Graph

Daily Weather History Graph

Search for Another Location

Airport or City:

Trip Planner

Search our weather history database for the weather conditions in past years. The results will help you decide how hot, cold, wet, or windy it might be!

Date:

Astronomy

Apr. 28, 2014 Rise Set
Actual Time 6:12 AM CDT 8:12 PM CDT
Civil Twilight 5:41 AM CDT 8:43 PM CDT
Nautical Twilight 5:03 AM CDT 9:21 PM CDT
Astronomical Twilight 4:22 AM CDT 10:03 PM CDT
Moon 5:52 AM CDT (4/28) 7:50 PM CDT (4/28)
Length of Visible Light 15h 02m
Length of Day
14h 00m
Waning Crescent, 0% of the Moon is Illuminated
Apr 28
Waning Crescent
Apr 29
New
May 6
First Quarter
May 14
Full
May 21
Last Quarter

Hourly Weather History & Observations

Time (CDT) Temp. Windchill Dew Point Humidity Pressure Visibility Wind Dir Wind Speed Gust Speed Precip Events Conditions
12:15 AM 48.2 °F - 46.4 °F 93% 29.56 in 10.0 mi East 24.2 mph 29.9 mph N/A   Overcast
12:35 AM 48.2 °F - 46.4 °F 93% 29.57 in 10.0 mi ESE 23.0 mph 32.2 mph N/A   Overcast
12:55 AM 48.2 °F - 46.4 °F 93% 29.59 in 10.0 mi ESE 10.4 mph 23.0 mph N/A   Overcast
1:15 AM 46.4 °F 39.8 °F 46.4 °F 100% 29.57 in 7.0 mi ESE 16.1 mph 25.3 mph 0.04 in Rain Rain
1:35 AM 46.4 °F 40.4 °F 46.4 °F 100% 29.56 in 5.0 mi East 13.8 mph - 0.10 in Rain Rain
1:55 AM 46.4 °F 40.1 °F 46.4 °F 100% 29.54 in 3.0 mi East 15.0 mph 21.9 mph 0.20 in Rain Light Rain
2:15 AM 46.4 °F 40.4 °F 46.4 °F 100% 29.51 in 7.0 mi East 13.8 mph 21.9 mph 0.04 in Rain Rain
2:35 AM 46.4 °F 39.8 °F 46.4 °F 100% 29.50 in 5.0 mi East 16.1 mph 23.0 mph 0.10 in Rain Heavy Rain
2:55 AM 46.4 °F 39.5 °F 46.4 °F 100% 29.49 in 7.0 mi East 17.3 mph 24.2 mph 0.11 in Rain Rain
3:15 AM 46.4 °F 38.7 °F 46.4 °F 100% 29.48 in 5.0 mi East 20.7 mph 28.8 mph N/A   Drizzle
3:35 AM 46.4 °F 38.3 °F 46.4 °F 100% 29.48 in 7.0 mi East 23.0 mph 32.2 mph N/A   Overcast
3:55 AM 46.4 °F 39.0 °F 46.4 °F 100% 29.48 in 4.0 mi East 19.6 mph 29.9 mph N/A   Overcast
4:15 AM 46.4 °F 38.3 °F 44.6 °F 93% 29.47 in 10.0 mi East 23.0 mph 31.1 mph N/A   Overcast
4:35 AM 46.4 °F 39.0 °F 44.6 °F 93% 29.46 in 7.0 mi East 19.6 mph 32.2 mph N/A   Overcast
4:55 AM 46.4 °F 39.2 °F 44.6 °F 93% 29.45 in 7.0 mi East 18.4 mph 26.5 mph N/A   Overcast
5:15 AM 46.4 °F 38.7 °F 44.6 °F 93% 29.45 in 10.0 mi East 20.7 mph 26.5 mph N/A   Overcast
5:35 AM 46.4 °F 38.7 °F 44.6 °F 93% 29.44 in 10.0 mi East 20.7 mph 26.5 mph N/A   Overcast
5:55 AM 46.4 °F 38.7 °F 42.8 °F 87% 29.45 in 10.0 mi East 20.7 mph 28.8 mph N/A   Overcast
6:15 AM 46.4 °F 39.2 °F 44.6 °F 93% 29.45 in 10.0 mi East 18.4 mph 25.3 mph N/A   Overcast
6:35 AM 46.4 °F 38.3 °F 44.6 °F 93% 29.45 in 10.0 mi East 23.0 mph 31.1 mph N/A   Light Drizzle
6:55 AM 46.4 °F 39.5 °F 44.6 °F 93% 29.45 in 10.0 mi East 17.3 mph 27.6 mph N/A   Overcast
7:15 AM 44.6 °F 36.6 °F 44.6 °F 100% 29.45 in 4.0 mi East 19.6 mph 29.9 mph N/A Rain Rain
7:35 AM 44.6 °F 36.9 °F 44.6 °F 100% 29.47 in 3.0 mi East 18.4 mph 31.1 mph 0.03 in Rain Rain
7:55 AM 44.6 °F 36.9 °F 44.6 °F 100% 29.46 in 3.0 mi East 18.4 mph 26.5 mph 0.05 in Rain Rain
8:15 AM 44.6 °F 36.9 °F 44.6 °F 100% 29.45 in 3.0 mi East 18.4 mph 29.9 mph 0.03 in Rain Rain
8:55 AM 44.6 °F 37.4 °F 44.6 °F 100% 29.46 in 5.0 mi East 16.1 mph 27.6 mph 0.07 in Rain Light Rain
9:15 AM 44.6 °F 36.6 °F 42.8 °F 93% 29.45 in 10.0 mi East 19.6 mph 27.6 mph N/A   Overcast
9:55 AM 44.6 °F 35.9 °F 42.8 °F 93% 29.44 in 2.5 mi East 23.0 mph 36.8 mph N/A   Overcast
10:15 AM 44.6 °F 36.4 °F 42.8 °F 93% 29.45 in 3.0 mi East 20.7 mph 31.1 mph N/A   Overcast
10:35 AM 44.6 °F 36.6 °F 44.6 °F 100% 29.44 in 3.0 mi East 19.6 mph 32.2 mph N/A Rain Heavy Rain
11:15 AM 44.6 °F 37.8 °F 44.6 °F 100% 29.45 in 7.0 mi East 15.0 mph 28.8 mph N/A   Overcast
11:35 AM 44.6 °F 36.1 °F 44.6 °F 100% 29.45 in 7.0 mi East 21.9 mph 29.9 mph N/A   Overcast
12:15 PM 44.6 °F 36.4 °F 44.6 °F 100% 29.44 in 5.0 mi East 20.7 mph 32.2 mph N/A   Overcast
12:35 PM 44.6 °F 36.4 °F 44.6 °F 100% 29.44 in 7.0 mi East 20.7 mph 33.4 mph N/A   Overcast
12:55 PM 44.6 °F 36.6 °F 44.6 °F 100% 29.43 in 10.0 mi East 19.6 mph 29.9 mph N/A   Overcast
1:15 PM 44.6 °F 36.4 °F 44.6 °F 100% 29.43 in 10.0 mi East 20.7 mph 29.9 mph N/A   Overcast
1:35 PM 44.6 °F 36.1 °F 44.6 °F 100% 29.43 in 10.0 mi East 21.9 mph 33.4 mph N/A   Overcast
1:55 PM 44.6 °F 36.9 °F 44.6 °F 100% 29.43 in 10.0 mi East 18.4 mph 32.2 mph N/A   Overcast
2:15 PM 44.6 °F 36.9 °F 44.6 °F 100% 29.43 in 7.0 mi East 18.4 mph 27.6 mph N/A   Overcast
2:35 PM 44.6 °F 36.9 °F 44.6 °F 100% 29.43 in 5.0 mi East 18.4 mph 29.9 mph N/A   Overcast
2:55 PM 44.6 °F 37.4 °F 44.6 °F 100% 29.43 in 4.0 mi East 16.1 mph 33.4 mph N/A   Overcast
3:15 PM 44.6 °F 37.2 °F 44.6 °F 100% 29.42 in 5.0 mi East 17.3 mph 27.6 mph N/A   Overcast
3:35 PM 44.6 °F 36.6 °F 44.6 °F 100% 29.42 in 4.0 mi East 19.6 mph 33.4 mph N/A   Overcast
4:15 PM 44.6 °F 37.2 °F 44.6 °F 100% 29.43 in 3.0 mi East 17.3 mph 29.9 mph N/A   Overcast
4:35 PM 44.6 °F 37.2 °F 44.6 °F 100% 29.45 in 2.5 mi East 17.3 mph 31.1 mph N/A   Overcast
4:55 PM 44.6 °F 36.9 °F 44.6 °F 100% 29.44 in 2.0 mi East 18.4 mph 34.5 mph N/A   Overcast
5:15 PM 44.6 °F 36.4 °F 44.6 °F 100% 29.45 in 3.0 mi East 20.7 mph 31.1 mph N/A   Overcast
5:35 PM 44.6 °F 36.6 °F 44.6 °F 100% 29.45 in 3.0 mi East 19.6 mph 31.1 mph N/A   Overcast
5:55 PM 44.6 °F 36.4 °F 44.6 °F 100% 29.46 in 1.8 mi East 20.7 mph 33.4 mph N/A   Overcast
6:15 PM 44.6 °F 36.1 °F 42.8 °F 93% 29.47 in 1.8 mi East 21.9 mph 29.9 mph N/A Rain Light Rain
6:35 PM 44.6 °F 36.9 °F 42.8 °F 93% 29.48 in 2.0 mi East 18.4 mph 28.8 mph N/A   Overcast
6:55 PM 42.8 °F 34.8 °F 42.8 °F 100% 29.47 in 1.5 mi East 17.3 mph 26.5 mph N/A Rain Light Rain
7:15 PM 42.8 °F 34.5 °F 42.8 °F 100% 29.48 in 2.5 mi East 18.4 mph 26.5 mph 0.01 in Rain Light Rain
7:35 PM 44.6 °F 36.9 °F 42.8 °F 93% 29.48 in 3.0 mi ENE 18.4 mph 25.3 mph 0.01 in   Overcast
7:55 PM 44.6 °F 37.4 °F 42.8 °F 93% 29.47 in 2.5 mi ENE 16.1 mph 25.3 mph 0.01 in   Overcast
8:15 PM 44.6 °F 37.4 °F 42.8 °F 93% 29.49 in 5.0 mi ENE 16.1 mph 24.2 mph N/A   Overcast
8:35 PM 44.6 °F 36.9 °F 42.8 °F 93% 29.48 in 10.0 mi ENE 18.4 mph 26.5 mph N/A   Overcast
8:55 PM 44.6 °F 37.8 °F 42.8 °F 93% 29.48 in 10.0 mi ENE 15.0 mph 27.6 mph N/A   Overcast
9:15 PM 44.6 °F 36.9 °F 42.8 °F 93% 29.49 in 10.0 mi ENE 18.4 mph 27.6 mph N/A   Overcast
9:55 PM 44.6 °F 37.4 °F 42.8 °F 93% 29.50 in 10.0 mi ENE 16.1 mph 26.5 mph N/A   Overcast
10:15 PM 44.6 °F 38.1 °F 42.8 °F 93% 29.50 in 10.0 mi ENE 13.8 mph 25.3 mph N/A   Overcast
10:35 PM 44.6 °F 38.1 °F 42.8 °F 93% 29.49 in 10.0 mi ENE 13.8 mph 27.6 mph N/A   Overcast
10:55 PM 44.6 °F 37.2 °F 42.8 °F 93% 29.49 in 5.0 mi ENE 17.3 mph 25.3 mph N/A   Overcast
11:15 PM 44.6 °F 37.4 °F 42.8 °F 93% 29.49 in 7.0 mi East 16.1 mph 24.2 mph N/A   Light Drizzle
11:35 PM 44.6 °F 38.4 °F 42.8 °F 93% 29.49 in 4.0 mi East 12.7 mph 24.2 mph N/A Rain Rain
11:55 PM 42.8 °F 35.1 °F 42.8 °F 100% 29.49 in 7.0 mi ENE 16.1 mph 26.5 mph 0.01 in Rain Heavy Rain